Estación de San Julian

Ultimos registro cada 15 minutos 61
Estación Fecha / Hora Temperatura Humedad Lluvia Velocidad Dirección Radiación Presion
61 San Julian 05-09-2026 15:00 23,4 48,3 0 2 241 679,4 981,4
60 San Julian 05-09-2026 14:45 23,6 49 0 2 237 680,6 981,5
59 San Julian 05-09-2026 14:30 23,6 49,3 0 2 233 723,1 981,5
58 San Julian 05-09-2026 14:15 24,1 46,1 0 2,5 237 748,1 981,6
57 San Julian 05-09-2026 14:00 24,6 46,2 0 2 240 791,9 981,9
56 San Julian 05-09-2026 13:45 24,8 42,7 0 2 240 681,9 981,8
55 San Julian 05-09-2026 13:30 25 42,1 0 1,5 229 783,1 981,9
54 San Julian 05-09-2026 13:15 26 41,3 0 1 230 835,6 982
53 San Julian 05-09-2026 13:00 24,5 39,8 0 1 233 818,1 982,1
52 San Julian 05-09-2026 12:45 24,5 40,1 0 1 234 815,6 982,3
51 San Julian 05-09-2026 12:30 23,5 41,8 0 1 236 818,1 982,3
50 San Julian 05-09-2026 12:15 22,7 51,5 0 1 258 804,4 982,5
49 San Julian 05-09-2026 12:00 24,3 52 0 0 333 789,4 982,8
48 San Julian 05-09-2026 11:45 23,2 55,2 0 0,5 279 776,9 982,9
47 San Julian 05-09-2026 11:30 22,6 57,2 0 0 20 756,9 983
46 San Julian 05-09-2026 11:15 22,3 57,3 0 0 95 735,6 983,1
45 San Julian 05-09-2026 11:00 21,7 58,2 0 0,5 58 705,6 983,4
44 San Julian 05-09-2026 10:45 21,5 55,8 0 0 44 676,9 983,2
43 San Julian 05-09-2026 10:30 20,4 57,8 0 0 44 640,6 983,4
42 San Julian 05-09-2026 10:15 19,2 61,4 0 0 44 603,1 983,5
41 San Julian 05-09-2026 10:00 18,5 62,2 0 0 44 560,6 983,4
40 San Julian 05-09-2026 09:45 17,8 65 0 0,5 45 516,9 983,6
39 San Julian 05-09-2026 09:30 17,6 70,7 0 0 46 470,6 983,7
38 San Julian 05-09-2026 09:15 15,8 74,5 0 0,5 58 423,1 983,8
37 San Julian 05-09-2026 09:00 14,1 80,4 0 0,5 90 373,1 983,7
36 San Julian 05-09-2026 08:45 14 79,6 0 1 80 321,9 983,8
35 San Julian 05-09-2026 08:30 13,5 80,5 0 1 72 271,9 983,9
34 San Julian 05-09-2026 08:15 12 82,5 0 0,5 46 220,6 983,8
33 San Julian 05-09-2026 08:00 11,9 85,1 0 0,5 49 51,9 983,7
32 San Julian 05-09-2026 07:45 10 92,6 0 0 338 135,6 983,9
31 San Julian 05-09-2026 07:30 9,3 95,2 0 0 248 16,9 983,8
30 San Julian 05-09-2026 07:15 8,4 96,5 0 0 209 6,9 983,9
29 San Julian 05-09-2026 07:00 7,3 95,6 0 0 211 3,1 983,8
28 San Julian 05-09-2026 06:45 7,7 96,4 0 0 211 0,6 983,7
27 San Julian 05-09-2026 06:30 7 96,7 0 0 211 0,6 983,7
26 San Julian 05-09-2026 06:15 7,7 97,4 0 0 211 0,6 983,8
25 San Julian 05-09-2026 06:00 7,6 96,5 0 0 211 0,6 983,6
24 San Julian 05-09-2026 05:45 7,3 97,1 0 0 211 0,6 983,5
23 San Julian 05-09-2026 05:30 6,9 97 0 0 211 0,6 983,5
22 San Julian 05-09-2026 05:15 6,8 96,4 0 0 211 0,6 983,6
21 San Julian 05-09-2026 05:00 7,5 95,9 0 0 212 0,6 983,7
20 San Julian 05-09-2026 04:45 8,6 96,9 0 0 212 0,6 983,5
19 San Julian 05-09-2026 04:30 8,6 96,4 0 0 212 0,6 983,7
18 San Julian 05-09-2026 04:15 8,6 96,7 0 0 212 0,6 983,7
17 San Julian 05-09-2026 04:00 7,9 96,5 0 0 212 0,6 983,8
16 San Julian 05-09-2026 03:45 7,8 96,6 0 0 215 0,6 983,9
15 San Julian 05-09-2026 03:30 7,3 96 0 0 218 0,6 984
14 San Julian 05-09-2026 03:15 7,5 95,5 0 0 220 0,6 984
13 San Julian 05-09-2026 03:00 7,9 96 0 0 220 0,6 984,1
12 San Julian 05-09-2026 02:45 7,8 95,7 0 0 225 0,6 984,4
11 San Julian 05-09-2026 02:30 7,5 95,1 0 0 230 0,6 984,6
10 San Julian 05-09-2026 02:15 8,4 95,1 0 0 232 0,6 984,7
9 San Julian 05-09-2026 02:00 7,4 94,3 0 0 240 0,6 984,8
8 San Julian 05-09-2026 01:45 7,5 93,9 0 0 247 0,6 984,9
7 San Julian 05-09-2026 01:30 7,4 93,2 0 0 247 0,6 985,1
6 San Julian 05-09-2026 01:15 7,5 92,6 0 0 247 0,6 985
5 San Julian 05-09-2026 01:00 8,2 91,6 0 0 247 0,6 985,3
4 San Julian 05-09-2026 00:45 9,7 91,4 0 0 247 0,6 985,3
3 San Julian 05-09-2026 00:30 10,1 92 0 0 247 0,6 985,3
2 San Julian 05-09-2026 00:15 8,3 91,9 0 0 247 0,6 985,7
1 San Julian 05-09-2026 00:00 8,7 91,6 0 0 247 0,6 985,7